Date String (YYYY-MM-DD hh:mm:ss) UTC,Instrument flags,Ambient pressure (hPa),Sample flow (lpm),Bypass flow (lpm),Sample temperature (°C),Ambient temperature (°C),ASC tube jacket temperature (°C),LED temperature (°C),Box temperature (°C),Sample RH (%),Span deviation,Mass concentration (μg/m³),Mass concentration (μg/m³),Mass concentration (μg/m³)
DateTimeUTC,F1_M11,P_M11,Q1_M11,Q2_M11,T1_M11,T2_M11,T3_M11,T4_M11,T5_M11,U1_M11,ZSPAN_M11,X0_M11,X2_M11,X1_M11
2022-07-27 19:00:00,,0829.5,4.99,0.00,32.2,28.4,00.0,40.1,32.4,33.5,0001.5,0015.23,0008.25,0007.40
2022-07-27 19:01:00,,0829.5,5.01,0.00,32.1,27.8,00.0,40.0,32.3,33.5,0001.5,0015.00,0008.14,0007.27
2022-07-27 19:02:00,,0829.5,5.00,0.00,32.0,27.5,00.0,40.0,32.3,32.9,0001.7,0015.48,0008.04,0007.19
2022-07-27 19:03:00,,0829.5,4.98,0.00,31.9,27.4,00.0,40.0,32.1,33.4,0002.1,0015.01,0008.05,0007.16
2022-07-27 19:04:00,,0829.4,5.01,0.00,31.8,27.5,00.0,40.0,32.0,33.3,0002.2,0014.84,0008.04,0007.14
2022-07-27 19:05:00,,0829.3,5.00,0.00,31.7,27.7,00.0,39.9,32.0,33.1,0002.1,0015.53,0007.98,0007.08
2022-07-27 19:06:00,,0829.3,5.00,0.00,31.6,27.9,00.0,39.9,32.1,33.4,0002.3,0016.55,0007.95,0007.03
2022-07-27 19:07:00,,0829.3,5.00,0.00,31.5,28.1,00.0,39.9,32.1,34.5,0002.0,0017.51,0007.97,0007.02
2022-07-27 19:08:00,,0829.2,5.00,0.00,31.5,28.3,00.0,39.9,32.2,34.2,0001.8,0017.62,0007.96,0007.00
2022-07-27 19:09:00,,0829.2,5.00,0.00,31.5,28.4,00.0,39.9,32.3,34.9,0001.7,0017.48,0007.96,0006.98
2022-07-27 19:10:00,,0829.2,4.98,0.00,31.6,28.6,00.0,39.9,32.4,34.8,0001.8,0017.82,0007.97,0006.96
2022-07-27 19:11:00,,0829.2,5.01,0.00,31.7,28.2,00.0,39.8,32.3,34.7,0002.3,0017.82,0007.95,0006.93
2022-07-27 19:12:00,,0829.2,4.99,0.00,31.7,27.6,00.0,39.7,32.2,34.7,0002.5,0018.81,0007.94,0006.94
2022-07-27 19:13:00,,0829.2,5.01,0.00,31.7,27.4,00.0,39.7,32.2,34.8,0002.6,0019.03,0007.94,0006.94
2022-07-27 19:14:00,,0829.2,5.00,0.00,31.6,27.4,00.0,39.7,32.0,34.4,0002.5,0019.51,0007.91,0006.92
2022-07-27 19:15:00,,0829.3,4.99,0.00,31.6,27.5,00.0,39.7,32.0,34.5,0001.8,0019.17,0007.97,0006.98
2022-07-27 19:16:00,,0829.3,5.02,0.00,31.6,27.7,00.0,39.7,32.0,34.8,0001.2,0019.54,0008.06,0007.06
2022-07-27 19:17:00,,0829.2,4.99,0.00,31.6,27.9,00.0,39.7,32.1,35.5,0001.2,0019.08,0008.11,0007.15
2022-07-27 19:18:00,,0829.3,5.00,0.00,31.7,28.1,00.0,39.7,32.2,35.9,0001.0,0018.05,0008.11,0007.17
2022-07-27 19:19:00,,0829.3,5.00,0.00,32.0,28.3,00.0,39.7,32.4,35.2,0001.0,0017.50,0008.09,0007.17
2022-07-27 19:20:00,,0829.3,5.00,0.00,32.3,28.5,00.0,39.8,32.6,34.6,0000.6,0017.35,0008.13,0007.19
2022-07-27 19:21:00,,0829.2,5.00,0.00,32.5,28.6,00.0,39.8,32.6,34.3,0000.4,0017.15,0008.14,0007.22
2022-07-27 19:22:00,,0829.2,5.00,0.00,32.6,28.3,00.0,39.8,32.6,33.8,-000.1,0017.95,0008.18,0007.25
2022-07-27 19:23:00,,0829.2,5.02,0.00,32.6,27.7,00.0,39.9,32.4,33.4,-000.2,0017.49,0008.22,0007.25
2022-07-27 19:24:00,,0829.3,4.99,0.00,32.5,27.5,00.0,39.9,32.3,33.6,-000.3,0016.59,0008.18,0007.23
2022-07-27 19:25:00,,0829.3,5.00,0.00,32.4,27.5,00.0,39.9,32.2,33.2,-000.4,0017.43,0008.20,0007.23
2022-07-27 19:26:00,,0829.2,5.01,0.00,32.2,27.6,00.0,40.0,32.1,33.3,-000.2,0018.00,0008.16,0007.22
2022-07-27 19:27:00,,0829.2,5.00,0.00,32.2,27.7,00.0,40.0,32.1,33.4,-000.1,0017.14,0008.11,0007.17
2022-07-27 19:28:00,,0829.1,4.99,0.00,32.1,27.9,00.0,40.0,32.1,34.2,-000.2,0017.44,0008.06,0007.11
2022-07-27 19:29:00,,0829.1,5.01,0.00,32.0,28.1,00.0,40.0,32.2,33.8,-000.1,0018.08,0008.09,0007.11
2022-07-27 19:30:00,,0829.1,5.00,0.00,32.0,28.3,00.0,40.0,32.3,33.9,0000.3,0018.18,0008.14,0007.13
2022-07-27 19:31:00,,0829.1,5.01,0.00,31.9,28.5,00.0,40.0,32.3,34.8,0000.5,0018.37,0008.11,0007.14
2022-07-27 19:32:00,,0829.0,4.99,0.00,31.9,28.6,00.0,40.0,32.4,34.8,0000.7,0019.22,0008.08,0007.12
2022-07-27 19:33:00,,0829.1,5.01,0.00,32.0,28.2,00.0,40.0,32.4,35.2,0001.2,0018.43,0008.03,0007.09
2022-07-27 19:34:00,,0829.1,4.99,0.00,32.1,27.7,00.0,39.9,32.4,33.8,0001.5,0017.75,0008.01,0007.06
2022-07-27 19:35:00,,0829.0,5.02,0.00,32.1,27.5,00.0,39.9,32.3,34.2,0001.6,0017.76,0007.97,0007.04
2022-07-27 19:36:00,,0829.1,4.99,0.00,32.0,27.5,00.0,39.9,32.1,34.1,0001.5,0017.10,0007.91,0007.00
2022-07-27 19:37:00,,0829.1,5.01,0.00,31.9,27.7,00.0,39.9,32.1,34.3,0001.5,0016.24,0007.84,0006.96
2022-07-27 19:38:00,,0829.0,5.00,0.00,31.9,27.9,00.0,39.9,32.1,34.1,0001.6,0016.15,0007.74,0006.91
2022-07-27 19:39:00,,0829.0,5.01,0.00,31.8,28.0,00.0,39.9,32.2,34.4,0001.6,0015.56,0007.71,0006.90
2022-07-27 19:40:00,,0829.0,4.99,0.00,31.8,28.2,00.0,39.9,32.2,34.8,0001.5,0014.76,0007.66,0006.87
2022-07-27 19:41:00,,0828.9,4.99,0.00,31.9,28.4,00.0,39.9,32.3,35.0,0000.8,0014.73,0007.62,0006.83
2022-07-27 19:42:00,,0828.9,5.00,0.00,31.9,28.5,00.0,39.9,32.4,34.4,0000.7,0014.74,0007.60,0006.79
2022-07-27 19:43:00,,0828.9,5.01,0.00,32.0,28.2,00.0,39.9,32.4,34.0,0001.1,0014.13,0007.59,0006.77
2022-07-27 19:44:00,,0828.9,4.99,0.00,32.0,27.6,00.0,39.8,32.3,34.4,0000.6,0013.70,0007.59,0006.78
2022-07-27 19:45:00,,0828.9,5.01,0.00,31.9,27.4,00.0,39.8,32.2,34.3,0000.3,0014.02,0007.61,0006.81
2022-07-27 19:46:00,,0828.8,5.01,0.00,31.8,27.5,00.0,39.8,32.0,35.0,0000.8,0014.04,0007.68,0006.83
2022-07-27 19:47:00,,0829.2,5.00,0.00,31.8,27.6,00.0,39.8,32.0,34.9,0000.4,0013.31,0007.68,0006.83
2022-07-27 19:48:00,,0829.0,4.99,0.00,31.9,27.8,00.0,39.8,32.1,34.7,0000.6,0013.82,0007.70,0006.83
2022-07-27 19:49:00,,0829.3,5.01,0.00,31.9,28.0,00.0,39.8,32.2,34.1,0000.7,0013.75,0007.74,0006.85
2022-07-27 19:50:00,,0829.4,5.00,0.00,31.9,28.2,00.0,39.8,32.2,34.3,0000.3,0013.69,0007.75,0006.84
2022-07-27 19:51:00,,0829.3,5.00,0.00,31.9,28.4,00.0,39.9,32.3,33.7,0000.9,0013.92,0007.74,0006.85
2022-07-27 19:52:00,,0829.0,5.00,0.00,31.9,28.5,00.0,39.9,32.3,33.7,0001.1,0015.02,0007.72,0006.86
2022-07-27 19:53:00,,0828.8,4.99,0.00,31.9,28.5,00.0,39.9,32.4,34.1,0001.2,0014.80,0007.72,0006.90
2022-07-27 19:54:00,,0828.9,5.01,0.00,31.9,28.0,00.0,39.8,32.3,34.5,0000.9,0014.71,0007.74,0006.94
2022-07-27 19:55:00,,0829.0,5.00,0.00,31.8,27.6,00.0,39.8,32.2,34.9,0000.6,0014.69,0007.76,0006.97
2022-07-27 19:56:00,,0829.0,5.01,0.00,31.7,27.5,00.0,39.8,32.1,34.8,0000.2,0014.31,0007.76,0006.99
2022-07-27 19:57:00,,0828.9,5.00,0.00,31.6,27.5,00.0,39.8,32.0,34.3,0000.7,0014.13,0007.77,0007.01
2022-07-27 19:58:00,,0828.9,4.99,0.00,31.6,27.7,00.0,39.8,32.0,34.6,0000.8,0014.13,0007.78,0007.02
2022-07-27 19:59:00,,0828.9,5.00,0.00,31.7,27.9,00.0,39.8,32.1,33.8,0000.7,0013.22,0007.83,0007.04
